Wilson Observed Data For Previous 48 Hours

Caption
Day and Hour Reservoir Elevation (behind dam)* Tailwater Elevation (below dam)* Average Hourly Discharge*
1/16/2019 1 AM CST 504.80 419.46 126,636
1/16/2019 2 AM CST 504.73 419.43 126,495
1/16/2019 3 AM CST 504.70 419.44 126,449
1/16/2019 4 AM CST 504.66 419.48 126,563
1/16/2019 5 AM CST 504.62 419.44 126,418
1/16/2019 6 AM CST 504.57 419.45 126,472
1/16/2019 7 AM CST 504.58 419.33 126,574
1/16/2019 8 AM CST 504.56 419.16 115,719
1/16/2019 9 AM CST 504.59 418.91 113,894
1/16/2019 10 AM CST 504.54 418.92 113,898
1/16/2019 11 AM CST 504.58 418.74 112,208
1/16/2019 12 PM CST 504.59 418.63 106,407
1/16/2019 1 PM CST 504.59 418.62 106,473
1/16/2019 2 PM CST 504.63 418.56 106,606
1/16/2019 3 PM CST 504.68 418.54 106,491
1/16/2019 4 PM CST 504.71 418.53 106,329
1/16/2019 5 PM CST 504.73 418.62 106,584
1/16/2019 6 PM CST 504.81 418.58 106,916
1/16/2019 7 PM CST 504.82 418.57 106,804
1/16/2019 8 PM CST 504.88 418.62 106,648
1/16/2019 9 PM CST 504.94 418.52 106,737
1/16/2019 10 PM CST 505.00 418.53 106,702
1/16/2019 11 PM CST 505.03 418.52 106,679
1/17/2019 12 AM CST 505.10 418.54 106,939
1/17/2019 1 AM CST 505.14 418.53 106,687
1/17/2019 2 AM CST 505.21 418.53 106,739
1/17/2019 3 AM CST 505.20 418.53 106,832
1/17/2019 4 AM CST 505.30 418.53 106,788
1/17/2019 5 AM CST 505.35 418.51 106,339
1/17/2019 6 AM CST 505.39 418.49 106,478
1/17/2019 7 AM CST 505.45 418.51 106,646
1/17/2019 8 AM CST 505.49 418.50 106,504
1/17/2019 9 AM CST 505.57 418.64 106,558
1/17/2019 10 AM CST 505.55 418.48 106,645
1/17/2019 11 AM CST 505.59 418.84 106,460
1/17/2019 12 PM CST 505.63 418.89 106,523
1/17/2019 1 PM CST 505.62 418.91 111,704
1/17/2019 2 PM CST 505.61 418.96 116,881
1/17/2019 3 PM CST 505.63 418.99 116,853
1/17/2019 4 PM CST 505.63 419.05 116,863
1/17/2019 5 PM CST 505.61 418.94 117,038
1/17/2019 6 PM CST 505.60 419.01 116,814
1/17/2019 7 PM CST 505.66 418.93 116,842
1/17/2019 8 PM CST 505.63 418.96 116,925
1/17/2019 9 PM CST 505.65 418.96 116,860
1/17/2019 10 PM CST 505.66 418.98 116,782
1/17/2019 11 PM CST 505.67 418.93 117,010

Elevations are in feet above sea level. Discharges are in cubic feet per second and are reported at the end of the hour.